FW3867 Weather Reports


time (UTC)temp
C
wind
direction
speed
KPH
gust
KPH
rain 1hr
cm
rain 24hr
cm
rain mn
cm
humidity
%
barometer
mb
20260507070018 3 360 1.6 9.7 0.00 2.16 0.00 85 1013.6
20260507064512 3 330 6.4 12.9 0.00 2.16 0.00 84 1013.6
20260507063010 3 333 4.8 12.9 0.00 2.16 0.00 84 1013.7
20260507061508 3 318 8.0 14.5 0.00 2.16 0.00 84 1013.8
20260507060004 4 325 6.4 20.9 0.00 2.16 0.00 84 1013.8
20260507054503 4 318 8.0 20.9 0.00 2.16 0.00 85 1014.0
20260507053100 4 355 11.3 19.3 0.00 2.16 0.00 86 1013.9
20260507051607 4 9 8.0 16.1 0.00 2.16 0.00 87 1013.7
20260507050107 5 344 9.7 16.1 0.00 2.16 0.00 88 1014.0
20260507044556 5 345 16.1 24.1 0.00 2.16 2.16 91 1013.9
20260507043050 5 27 14.5 24.1 0.00 2.16 2.16 92 1013.9
20260507041549 5 350 9.7 19.3 0.00 2.16 2.16 92 1013.6
20260507040048 6 349 8.0 12.9 0.00 2.16 2.16 93 1013.6
20260507034544 6 9 9.7 16.1 0.00 2.18 2.16 94 1013.1
20260507033047 6 333 8.0 14.5 0.00 2.18 2.16 94 1012.8
20260507031542 6 319 8.0 19.3 0.00 2.18 2.16 94 1013.0
20260507030036 6 299 12.9 22.5 0.00 2.18 2.16 96 1013.1
20260507024535 6 304 11.3 19.3 0.03 2.26 2.16 98 1013.3
20260507023031 6 301 3.2 9.7 0.03 2.26 2.16 98 1012.9
20260507021546 6 284 6.4 12.9 0.03 2.26 2.16 98 1013.2
20260507020032 6 289 1.6 6.4 0.03 2.26 2.16 98 1012.9
20260507014530 6 296 3.2 6.4 0.03 2.26 2.16 99 1013.1
20260507013034 6 237 4.8 8.0 0.00 2.24 2.13 99 1013.0
20260507011532 6 241 8.0 12.9 0.00 2.24 2.13 99 1013.1
20260507010039 6 244 6.4 11.3 0.00 2.24 2.13 99 1012.8
20260507004528 6 247 4.8 8.0 0.00 2.24 2.13 99 1012.8
20260507003026 6 225 3.2 8.0 0.00 2.24 2.13 99 1012.4
20260507001528 6 187 3.2 8.0 0.00 2.24 2.13 99 1012.4
20260507000003 6 9 0.0 1.6 0.00 2.24 2.13 99 1012.2
20260506234502 6 27 0.0 4.8 0.00 2.24 2.13 99 1012.1
20260506233102 6 281 0.0 0.0 0.00 2.24 2.13 99 1012.1
20260506231530 6 281 1.6 4.8 0.00 2.24 2.13 99 1011.9
20260506230032 6 27 0.0 0.0 0.00 2.24 2.13 99 1011.8
20260506224527 6 27 0.0 0.0 0.00 2.24 2.13 99 1011.7
20260506223024 6 27 1.6 4.8 0.00 2.24 2.13 99 1011.4
20260506221524 6 27 1.6 6.4 0.00 2.24 2.13 98 1011.3
20260506220030 6 27 4.8 8.0 0.00 2.24 2.13 99 1011.2
20260506214521 6 27 3.2 8.0 0.00 2.24 2.13 98 1011.4
20260506213027 6 27 4.8 14.5 0.00 2.24 2.13 99 1011.2
20260506211521 6 27 1.6 8.0 0.00 2.24 2.13 99 1011.2
20260506210018 5 27 4.8 16.1 0.00 2.24 2.13 98 1011.0
20260506204513 5 28 11.3 17.7 0.00 2.24 2.13 98 1011.0
20260506203021 6 27 4.8 14.5 0.00 2.24 2.13 98 1010.6
20260506201510 6 11 11.3 19.3 0.00 2.24 2.13 98 1010.5
20260506200006 6 9 11.3 19.3 0.00 2.24 2.13 98 1010.3
20260506194507 6 351 16.1 20.9 0.00 2.24 2.13 99 1010.1
20260506193004 6 360 14.5 20.9 0.00 2.24 2.13 99 1010.2
20260506191502 6 346 11.3 20.9 0.00 2.24 2.13 99 1009.9
20260506190004 6 345 8.0 17.7 0.00 2.24 2.13 99 1009.9
20260506184610 6 22 9.7 16.1 0.00 2.62 2.13 99 1009.7
20260506183105 6 9 12.9 22.5 0.00 2.62 2.13 99 1009.7
20260506181600 6 355 12.9 20.9 0.03 2.62 2.13 99 1009.5
20260506180056 6 27 11.3 20.9 0.03 2.62 2.13 99 1009.1
20260506174552 6 27 11.3 17.7 0.08 2.62 2.13 99 1008.8
20260506173055 6 9 12.9 19.3 0.10 2.62 2.13 99 1008.6
20260506171550 6 27 14.5 19.3 0.13 2.59 2.11 99 1008.6
20260506170050 6 27 11.3 22.5 0.13 2.59 2.11 99 1008.6
20260506164520 6 27 11.3 17.7 0.13 2.54 2.06 99 1008.6
20260506163019 5 27 12.9 22.5 0.13 2.51 2.03 99 1008.5
20260506161521 5 27 14.5 25.7 0.10 2.46 1.98 99 1008.5
20260506160029 5 20 14.5 24.1 0.10 2.46 1.98 99 1008.4
20260506154514 5 28 17.7 24.1 0.10 2.41 1.93 99 1008.1
20260506153014 5 27 17.7 22.5 0.13 2.39 1.91 99 1008.4
20260506151600 5 28 12.9 24.1 0.18 2.36 1.88 99 1008.1
20260506150043 5 22 11.3 20.9 0.25 2.36 1.88 99 1008.1
20260506144540 5 9 9.7 19.3 0.30 2.31 1.83 99 1007.9
20260506143047 4 27 11.3 22.5 0.36 2.26 1.78 99 1007.8
20260506141539 4 27 16.1 25.7 0.38 2.18 1.70 99 1007.6
20260506140039 4 18 16.1 25.7 0.38 2.11 1.63 98 1007.6
20260506134506 4 24 16.1 29.0 0.41 2.01 1.52 98 1007.6
20260506133005 4 27 16.1 27.4 0.41 1.91 1.42 98 1007.5
20260506131601 5 16 17.7 27.4 0.41 1.80 1.32 98 1007.8
20260506130128 5 27 16.1 24.1 0.41 1.70 1.22 98 1007.9
20260506124556 5 28 16.1 20.9 0.41 1.60 1.12 98 1007.8
20260506123056 5 25 17.7 25.7 0.41 1.50 1.02 99 1007.8
20260506121526 5 355 11.3 24.1 0.41 1.40 0.91 98 1007.6
20260506120022 5 28 17.7 29.0 0.41 1.30 0.81 98 1007.3
20260506114521 5 355 14.5 27.4 0.38 1.19 0.71 98 1007.3
20260506113014 6 139 17.7 22.5 0.36 1.09 0.61 98 1006.9
20260506111510 6 139 16.1 24.1 0.30 0.99 0.51 98 1007.0
20260506110007 6 139 12.9 19.3 0.25 0.89 0.41 98 1007.1
20260506104503 7 139 8.0 14.5 0.18 0.79 0.30 98 1006.9
20260506103008 7 139 4.8 8.0 0.15 0.71 0.25 98 1007.0
20260506101501 7 139 6.4 11.3 0.13 0.69 0.20 98 1006.9
20260506100001 7 139 3.2 14.5 0.10 0.64 0.15 98 1006.8
20260506094601 7 139 8.0 17.7 0.08 0.61 0.13 98 1006.7
20260506093028 7 139 11.3 19.3 0.08 0.58 0.10 98 1007.0
20260506091528 7 139 6.4 16.1 0.05 0.56 0.08 98 1007.0
20260506090022 7 139 9.7 14.5 0.03 0.53 0.05 98 1007.6
20260506084522 7 139 3.2 11.3 0.05 0.53 0.05 98 1007.7
20260506083020 7 139 11.3 14.5 0.03 0.51 0.03 98 1007.7
20260506081518 7 141 0.0 3.2 0.03 0.51 0.03 98 1007.3
20260506073047 7 141 0.0 3.2 0.00 0.48 0.00 98 1007.2
20260506071600 7 141 0.0 6.4 0.00 0.48 0.00 98 1007.2